| time (UTC) | temp C | wind direction | speed KPH | gust KPH | rain 1hr cm | rain 24hr cm | rain mn cm | humidity % | barometer mb |
| 20260504080150 | 5 | 218 | 0.0 | 1.6 | 0.00 | 0.00 | 0.00 | 78 | 1012.7 |
| 20260504070151 | 6 | 0 | 0.0 | 0.0 | 0.00 | 0.00 | 0.00 | 74 | 1012.5 |
| 20260504060150 | 5 | 0 | 0.0 | 0.0 | 0.00 | 0.00 | 0.00 | 71 | 1012.5 |
| 20260504050150 | 6 | 0 | 0.0 | 0.0 | 0.00 | 0.00 | 0.00 | 67 | 1012.4 |
| 20260504043149 | 6 | 0 | 0.0 | 0.0 | 0.00 | 0.00 | 0.00 | 63 | 1012.4 |
| 20260504040150 | 7 | 0 | 0.0 | 0.0 | 0.00 | 0.00 | 0.00 | 60 | 1012.2 |
| 20260504033149 | 7 | 0 | 0.0 | 0.0 | 0.00 | 0.00 | 0.00 | 58 | 1012.1 |
| 20260504030149 | 8 | 0 | 0.0 | 0.0 | 0.00 | 0.00 | 0.00 | 55 | 1012.1 |
| 20260504023149 | 8 | 0 | 0.0 | 0.0 | 0.00 | 0.00 | 0.00 | 54 | 1012.0 |
| 20260504020149 | 8 | 0 | 0.0 | 0.0 | 0.00 | 0.00 | 0.00 | 53 | 1011.9 |
| 20260504013149 | 9 | 0 | 0.0 | 0.0 | 0.00 | 0.00 | 0.00 | 53 | 1011.6 |
| 20260504010150 | 10 | 0 | 0.0 | 0.0 | 0.00 | 0.00 | 0.00 | 52 | 1011.2 |
| 20260504000150 | 12 | 0 | 0.0 | 0.0 | 0.00 | 0.00 | 0.00 | 43 | 1010.4 |
| 20260503230150 | 14 | 273 | 0.0 | 3.2 | 0.00 | 0.00 | 0.00 | 36 | 1009.9 |
| 20260503220150 | 13 | 283 | 3.2 | 12.9 | 0.00 | 0.00 | 0.00 | 36 | 1009.7 |
| 20260503210150 | 12 | 305 | 6.4 | 20.9 | 0.00 | 0.00 | 0.00 | 38 | 1009.7 |
| 20260503190150 | 13 | 339 | 8.0 | 16.1 | 0.00 | 0.00 | 0.00 | 38 | 1009.4 |
| 20260503180150 | 11 | 342 | 4.8 | 14.5 | 0.00 | 0.00 | 0.00 | 45 | 1009.7 |
| 20260503170151 | 11 | 322 | 6.4 | 20.9 | 0.00 | 0.00 | 0.00 | 43 | 1009.9 |
| 20260503140151 | 10 | 3 | 6.4 | 16.1 | 0.00 | 0.00 | 0.00 | 59 | 1009.7 |
| 20260503130150 | 9 | 347 | 3.2 | 11.3 | 0.00 | 0.00 | 0.00 | 61 | 1010.1 |
| 20260503120150 | 7 | 358 | 4.8 | 19.3 | 0.00 | 0.00 | 0.00 | 66 | 1010.0 |
| 20260503090150 | 6 | 338 | 3.2 | 6.4 | 0.00 | 0.08 | 0.00 | 68 | 1009.9 |